Flight Track Log - Related Links

Times and Time Zones

All times are in EDT time to prevent confusion due to time zone crossing. See the SKW6492 flight status page for this flight to view local times or setup timezone preferences in your user account.

Time Position Orientation Groundspeed Altitude Reporting Facility
EDT Latitude Longitude Course Direction KTS MPH feet Rate Location/Type
Fri 10:21:54 PM 39.9000 -104.5500 75° East 209 241 8,000  Level Denver TRACON
Fri 10:22:54 PM 39.9167 -104.4667 75° East 276 318 9,300 1,474 Climbing Denver TRACON
Fri 10:23:48 PM 39.9333 -104.3667 78° East 307 353 10,800 1,745 Climbing Denver TRACON
Fri 10:25:15 PM 40.0425 -104.3150 20° North 318 366 13,400 1,852 Climbing Denver Center
Fri 10:26:17 PM 40.1411 -104.3381 350° North 330 380 15,400 1,707 Climbing Denver Center
Fri 10:27:18 PM 40.2292 -104.3750 342° North 339 390 16,900 1,220 Climbing Denver Center
Fri 10:28:20 PM 40.3092 -104.4472 325° Northwest 350 403 17,900 1,065 Climbing Denver Center
Fri 10:29:22 PM 40.4008 -104.5239 328° Northwest 362 417 19,100 1,122 Climbing Denver Center
Fri 10:30:23 PM 40.4872 -104.5975 327° Northwest 368 423 20,200 1,024 Climbing Denver Center
Fri 10:31:25 PM 40.5819 -104.6778 327° Northwest 370 426 21,200 726 Climbing Denver Center
Fri 10:32:27 PM 40.6708 -104.7514 328° Northwest 372 428 21,700 484 Climbing Denver Center
Fri 10:33:29 PM 40.7611 -104.8283 327° Northwest 381 438 22,200 488 Climbing Denver Center
Fri 10:34:30 PM 40.8594 -104.8861 336° Northwest 389 448 22,700 390 Climbing Denver Center
Fri 10:35:32 PM 40.9603 -104.9336 340° North 389 448 23,000 581 Climbing Denver Center
Fri 10:36:34 PM 41.0786 -104.9939 339° North 400 460 23,900 829 Climbing Denver Center
Fri 10:37:35 PM 41.1797 -105.0422 340° North 404 465 24,700 634 Climbing Denver Center
Fri 10:38:37 PM 41.3003 -105.1003 340° North 410 472 25,200 484 Climbing Denver Center
Fri 10:39:39 PM 41.4050 -105.1556 338° Northwest 417 480 25,700 484 Climbing Denver Center
Fri 10:40:41 PM 41.5292 -105.2178 339° North 423 487 26,200 488 Climbing Denver Center
Fri 10:41:42 PM 41.6175 -105.3075 323° Northwest 429 494 26,700 537 Climbing Denver Center
Fri 10:42:44 PM 41.7003 -105.4028 319° Northwest 416 479 27,300 726 Climbing Denver Center
Fri 10:43:46 PM 41.7928 -105.5158 318° Northwest 406 467 28,200 774 Climbing Denver Center
Fri 10:44:48 PM 41.8725 -105.6106 319° Northwest 402 463 28,900 780 Climbing Denver Center
Fri 10:45:49 PM 41.9636 -105.7214 318° Northwest 397 457 29,800 683 Climbing Denver Center
Fri 10:46:51 PM 42.0422 -105.8178 318° Northwest 397 457 30,300 435 Climbing Denver Center
Fri 10:47:53 PM 42.1192 -105.9133 317° Northwest 392 451 30,700 290 Climbing Denver Center
Fri 10:48:55 PM 42.2150 -106.0303 318° Northwest 408 470 30,900 195 Climbing Denver Center
Fri 10:49:56 PM 42.2975 -106.1294 318° Northwest 414 476 31,100 244 Climbing Denver Center
Fri 10:50:58 PM 42.3931 -106.2497 317° Northwest 416 479 31,400 339 Climbing Denver Center
Fri 10:52:00 PM 42.4767 -106.3525 318° Northwest 420 483 31,800 290 Climbing Denver Center
Fri 10:53:02 PM 42.5722 -106.4717 317° Northwest 421 484 32,000 97 Climbing Denver Center
Fri 10:54:04 PM 42.6558 -106.5778 317° Northwest 426 490 32,000  Level Denver Center
Fri 10:55:05 PM 42.7425 -106.6850 318° Northwest 434 499 32,000  Level Denver Center
Fri 10:56:07 PM 42.8403 -106.8094 317° Northwest 435 501 32,000  Level Denver Center
Fri 10:57:09 PM 42.9217 -106.9131 317° Northwest 422 486 32,000  Level Denver Center
Fri 10:58:11 PM 43.0178 -107.0339 317° Northwest 420 483 32,000  Level Denver Center
Fri 10:59:12 PM 43.0994 -107.1369 317° Northwest 419 482 32,000  Level Denver Center
Fri 11:00:03 PM 43.1675 -107.2258 316° Northwest 416 479 32,000  Level Salt Lake Center
Fri 11:01:04 PM 43.2500 -107.3350 316° Northwest 415 478 32,000  Level Salt Lake Center
Fri 11:02:06 PM 43.3308 -107.4442 316° Northwest 413 475 32,000  Level Salt Lake Center
Fri 11:03:08 PM 43.4142 -107.5517 317° Northwest 412 474 32,000  Level Salt Lake Center
Fri 11:04:09 PM 43.5142 -107.6828 316° Northwest 412 474 32,000 -146 Level Salt Lake Center
Fri 11:05:11 PM 43.5983 -107.7872 318° Northwest 412 474 31,700 -1,415 Descending Salt Lake Center
Fri 11:06:12 PM 43.6856 -107.9006 317° Northwest 420 483 29,100 -2,634 Descending Salt Lake Center
Fri 11:07:14 PM 43.7739 -108.0178 316° Northwest 434 499 26,300 -2,634 Descending Salt Lake Center
Fri 11:08:15 PM 43.8569 -108.1308 316° Northwest 430 495 23,700 -2,537 Descending Salt Lake Center
Fri 11:09:17 PM 43.9447 -108.2144 326° Northwest 396 456 21,100 -2,341 Descending Salt Lake Center
Fri 11:10:18 PM 44.0339 -108.2847 330° Northwest 376 433 18,900 -2,000 Descending Salt Lake Center
Fri 11:11:20 PM 44.1189 -108.3494 331° Northwest 363 418 17,000 -2,146 Descending Salt Lake Center
Fri 11:12:21 PM 44.2203 -108.4253 332° Northwest 352 405 14,500 -2,244 Descending Salt Lake Center
Fri 11:13:23 PM 44.3044 -108.4892 331° Northwest 349 402 12,400 -1,220 Descending Salt Lake Center
Fri 11:14:24 PM 44.3875 -108.5528 331° Northwest 346 398 12,000 -585 Descending Salt Lake Center
Fri 11:15:26 PM 44.4703 -108.6158 331° Northwest 343 395 11,200 -829 Descending Salt Lake Center
Fri 11:16:27 PM 44.5464 -108.6725 332° Northwest 332 382 10,300 -1,033 Descending Salt Lake Center
Fri 11:17:28 PM 44.6094 -108.7228 330° Northwest 297 342 9,100 -927 Descending Salt Lake Center
Fri 11:18:30 PM 44.6439 -108.7869 307° West 254 292 8,400 -537 Descending Salt Lake Center
Fri 11:19:31 PM 44.6181 -108.8522 241° Southwest 213 245 8,000 -585 Descending Salt Lake Center
Fri 11:20:33 PM 44.5842 -108.9125 232° Southwest 203 234 7,200 -1,024 Descending Salt Lake Center
Fri 11:21:34 PM 44.5519 -108.9686 231° Southwest 177 204 5,900 -683 Descending Salt Lake Center
Fri 11:22:36 PM 44.5269 -109.0119 231° Southwest 172 198 5,800 -97 Descending Salt Lake Center

Login

Don't have an account? Register now (free) for customized features, flight alerts, and more!